N601JG UKKK-LUKK

Flight info

Callsign N601JG
Flight time 0h 41m
Altitude 36000
Route BASOR M856 SULUM N145 LAVDA Z888 MURKA
Aircraft CL60/M-SBDE1E2E3FGHIJ1J4J5J7M3RWXYZ/LB1V1D1

Departure

Time 2026-05-07 12:13
Airport Ihor Sikorsky Kyiv International Airport (Zhuliany) (UKKK)

Arrival

Time 2026-05-07 12:55
Airport Chişinău International Airport (LUKK)
Time Latitude Longitude Altitude Speed Heading
2026-05-07 11:46 50.41105 30.44025 585 ft 0 kts 24°
2026-05-07 12:08 50.41112 30.44032 585 ft 6 kts 40°
2026-05-07 12:08 50.41139 30.44111 586 ft 10 kts 114°
2026-05-07 12:09 50.41101 30.44240 585 ft 15 kts 113°
2026-05-07 12:09 50.41051 30.44412 583 ft 19 kts 110°
2026-05-07 12:09 50.41007 30.44632 583 ft 21 kts 110°
2026-05-07 12:09 50.40899 30.44840 580 ft 29 kts 133°
2026-05-07 12:10 50.40763 30.45085 579 ft 31 kts 129°
2026-05-07 12:10 50.40615 30.45351 577 ft 33 kts 130°
2026-05-07 12:10 50.40504 30.45551 577 ft 6 kts 131°
2026-05-07 12:10 50.40482 30.45652 577 ft 18 kts 96°
2026-05-07 12:11 50.40467 30.45876 577 ft 22 kts 96°
2026-05-07 12:11 50.40455 30.46087 578 ft 10 kts 95°
2026-05-07 12:11 50.40379 30.46189 578 ft 19 kts 176°
2026-05-07 12:11 50.40245 30.46245 577 ft 21 kts 124°
2026-05-07 12:12 50.40228 30.46490 577 ft 24 kts 95°
2026-05-07 12:12 50.40232 30.46688 577 ft 9 kts 39°
2026-05-07 12:12 50.40253 30.46677 577 ft 4 kts 279°
2026-05-07 12:12 50.40241 30.46599 577 ft 16 kts 266°
2026-05-07 12:13 50.40213 30.45914 577 ft 116 kts 265°
2026-05-07 12:13 50.40143 30.44243 915 ft 175 kts 263°
2026-05-07 12:13 50.40077 30.42281 1935 ft 192 kts 261°
2026-05-07 12:13 50.39919 30.40201 3031 ft 201 kts 244°
2026-05-07 12:14 50.38944 30.38687 3977 ft 218 kts 201°
2026-05-07 12:14 50.37409 30.38616 5111 ft 241 kts 162°
2026-05-07 12:14 50.36055 30.40177 6442 ft 257 kts 133°
2026-05-07 12:14 50.34914 30.42319 7721 ft 269 kts 131°
2026-05-07 12:15 50.33743 30.44588 9134 ft 275 kts 130°
2026-05-07 12:15 50.32551 30.46924 10494 ft 282 kts 129°
2026-05-07 12:15 50.31309 30.49360 11351 ft 307 kts 130°
2026-05-07 12:15 50.29915 30.52059 12078 ft 334 kts 131°
2026-05-07 12:16 50.28207 30.54633 13032 ft 348 kts 142°
2026-05-07 12:16 50.26297 30.57020 14058 ft 359 kts 142°
2026-05-07 12:16 50.24338 30.59475 15121 ft 368 kts 142°
2026-05-07 12:16 50.22309 30.62018 16188 ft 375 kts 142°
2026-05-07 12:17 50.20240 30.64610 17223 ft 383 kts 143°
2026-05-07 12:17 50.18131 30.67252 18211 ft 389 kts 143°
2026-05-07 12:17 50.16009 30.69907 19174 ft 395 kts 143°
2026-05-07 12:17 50.13861 30.72595 20111 ft 401 kts 143°
2026-05-07 12:18 50.11662 30.75343 21030 ft 406 kts 143°
2026-05-07 12:18 50.09454 30.78099 21914 ft 412 kts 143°
2026-05-07 12:18 50.07054 30.80595 22773 ft 414 kts 155°
2026-05-07 12:18 50.04333 30.82033 23568 ft 417 kts 171°
2026-05-07 12:19 50.01445 30.82196 24275 ft 420 kts 188°
2026-05-07 12:19 49.98517 30.81414 24909 ft 427 kts 192°
2026-05-07 12:19 49.95593 30.80561 25524 ft 434 kts 192°
2026-05-07 12:19 49.92612 30.79703 26152 ft 439 kts 192°
2026-05-07 12:20 49.89607 30.78840 26760 ft 443 kts 192°
2026-05-07 12:20 49.86523 30.77956 27317 ft 448 kts 192°
2026-05-07 12:20 49.83441 30.77074 27832 ft 453 kts 192°
2026-05-07 12:20 49.80347 30.76191 28326 ft 458 kts 192°
2026-05-07 12:21 49.77198 30.75293 28805 ft 462 kts 192°
2026-05-07 12:21 49.73994 30.74380 29260 ft 466 kts 192°
2026-05-07 12:21 49.70789 30.73469 29664 ft 471 kts 192°
2026-05-07 12:21 49.67567 30.72555 30083 ft 474 kts 192°
2026-05-07 12:22 49.64321 30.71635 30463 ft 477 kts 192°
2026-05-07 12:22 49.61021 30.70701 30818 ft 480 kts 192°
2026-05-07 12:22 49.57776 30.69523 31243 ft 479 kts 200°
2026-05-07 12:22 49.54784 30.67311 31754 ft 474 kts 214°
2026-05-07 12:23 49.52177 30.64198 32236 ft 470 kts 224°
2026-05-07 12:23 49.49797 30.60805 32696 ft 469 kts 225°
2026-05-07 12:23 49.47435 30.57427 33162 ft 468 kts 225°
2026-05-07 12:23 49.45028 30.54002 33647 ft 466 kts 225°
2026-05-07 12:24 49.42653 30.50629 34111 ft 464 kts 225°
2026-05-07 12:24 49.40291 30.47279 34570 ft 463 kts 225°
2026-05-07 12:24 49.37953 30.43969 34956 ft 461 kts 225°
2026-05-07 12:24 49.35584 30.40621 35319 ft 460 kts 225°
2026-05-07 12:25 49.33221 30.37286 35689 ft 459 kts 225°
2026-05-07 12:25 49.30877 30.33983 35987 ft 459 kts 224°
2026-05-07 12:25 49.28479 30.30610 36057 ft 465 kts 224°
2026-05-07 12:26 49.23645 30.23837 36064 ft 476 kts 224°
2026-05-07 12:26 49.18766 30.17020 36069 ft 478 kts 224°
2026-05-07 12:27 49.13845 30.10167 36072 ft 477 kts 224°
2026-05-07 12:27 49.08937 30.03352 36073 ft 477 kts 224°
2026-05-07 12:28 49.04030 29.96558 36066 ft 476 kts 224°
2026-05-07 12:28 48.99130 29.89792 36065 ft 476 kts 224°
2026-05-07 12:29 48.94221 29.83030 36062 ft 476 kts 224°
2026-05-07 12:29 48.89306 29.76275 36068 ft 475 kts 224°
2026-05-07 12:30 48.84404 29.69557 36064 ft 475 kts 225°
2026-05-07 12:30 48.79474 29.62818 36053 ft 474 kts 225°
2026-05-07 12:31 48.74592 29.56165 36055 ft 474 kts 224°
2026-05-07 12:31 48.69678 29.49486 36053 ft 473 kts 225°
2026-05-07 12:32 48.64768 29.42827 36046 ft 473 kts 225°
2026-05-07 12:32 48.59873 29.36206 36054 ft 473 kts 225°
2026-05-07 12:33 48.52481 29.26245 36040 ft 472 kts 224°
2026-05-07 12:33 48.47615 29.19710 36050 ft 471 kts 224°
2026-05-07 12:34 48.42704 29.13131 36052 ft 471 kts 224°
2026-05-07 12:34 48.37806 29.06590 35924 ft 472 kts 224°
2026-05-07 12:35 48.35345 29.03309 35390 ft 467 kts 224°
2026-05-07 12:35 48.32943 29.00113 34825 ft 462 kts 224°
2026-05-07 12:35 48.30545 28.96926 34208 ft 458 kts 224°
2026-05-07 12:35 48.28164 28.93764 33645 ft 457 kts 224°
2026-05-07 12:36 48.25786 28.90610 33036 ft 458 kts 224°
2026-05-07 12:36 48.23392 28.87439 32436 ft 459 kts 224°
2026-05-07 12:36 48.21001 28.84315 31827 ft 461 kts 222°
2026-05-07 12:36 48.18414 28.81450 31170 ft 465 kts 215°
2026-05-07 12:37 48.15592 28.79013 30516 ft 468 kts 208°
2026-05-07 12:37 48.12598 28.77079 29876 ft 469 kts 202°
2026-05-07 12:37 48.09468 28.75678 29186 ft 467 kts 195°
2026-05-07 12:37 48.06288 28.74845 28415 ft 463 kts 188°
2026-05-07 12:38 48.03097 28.74595 27844 ft 454 kts 181°
2026-05-07 12:38 47.99960 28.74849 27223 ft 452 kts 176°
2026-05-07 12:38 47.96857 28.75293 26647 ft 447 kts 175°
2026-05-07 12:38 47.93760 28.75734 26046 ft 443 kts 175°
2026-05-07 12:39 47.90691 28.76170 25464 ft 438 kts 175°
2026-05-07 12:39 47.87660 28.76601 24878 ft 434 kts 175°
2026-05-07 12:39 47.84683 28.77023 24313 ft 430 kts 175°
2026-05-07 12:39 47.81675 28.77450 23737 ft 426 kts 175°
2026-05-07 12:40 47.78772 28.77862 23184 ft 421 kts 175°
2026-05-07 12:40 47.75851 28.78276 22626 ft 416 kts 175°
2026-05-07 12:40 47.72998 28.78680 22078 ft 411 kts 175°
2026-05-07 12:40 47.70149 28.79084 21535 ft 407 kts 175°
2026-05-07 12:41 47.67332 28.79482 20995 ft 403 kts 175°
2026-05-07 12:41 47.64565 28.79874 20463 ft 400 kts 175°
2026-05-07 12:41 47.61824 28.80262 19937 ft 396 kts 175°
2026-05-07 12:41 47.59072 28.80651 19411 ft 393 kts 174°
2026-05-07 12:42 47.56349 28.81036 18886 ft 390 kts 174°
2026-05-07 12:42 47.53676 28.81414 18374 ft 387 kts 174°
2026-05-07 12:42 47.51005 28.81792 17864 ft 384 kts 174°
2026-05-07 12:42 47.48364 28.82167 17361 ft 381 kts 174°
2026-05-07 12:43 47.45730 28.82541 16858 ft 379 kts 174°
2026-05-07 12:43 47.43107 28.82914 16354 ft 376 kts 174°
2026-05-07 12:43 47.40499 28.83284 15854 ft 374 kts 174°
2026-05-07 12:43 47.37925 28.83649 15363 ft 372 kts 174°
2026-05-07 12:44 47.35338 28.84016 14869 ft 370 kts 174°
2026-05-07 12:44 47.32797 28.84375 14379 ft 367 kts 174°
2026-05-07 12:44 47.30270 28.84730 13899 ft 362 kts 174°
2026-05-07 12:44 47.27786 28.85079 13421 ft 354 kts 174°
2026-05-07 12:45 47.25326 28.85431 12700 ft 354 kts 173°
2026-05-07 12:45 47.23172 28.85775 12229 ft 345 kts 171°
2026-05-07 12:45 47.20938 28.86704 11907 ft 330 kts 155°
2026-05-07 12:45 47.19025 28.88477 11561 ft 319 kts 139°
2026-05-07 12:46 47.17558 28.90805 11204 ft 310 kts 126°
2026-05-07 12:46 47.16473 28.93521 10831 ft 303 kts 115°
2026-05-07 12:46 47.15698 28.96332 10459 ft 297 kts 109°
2026-05-07 12:46 47.15063 28.99206 10076 ft 292 kts 107°
2026-05-07 12:47 47.14402 29.01985 9695 ft 288 kts 111°
2026-05-07 12:47 47.13628 29.04633 9325 ft 283 kts 115°
2026-05-07 12:47 47.12721 29.07183 8735 ft 284 kts 120°
2026-05-07 12:47 47.11663 29.09623 8132 ft 284 kts 125°
2026-05-07 12:48 47.10472 29.11905 7708 ft 280 kts 130°
2026-05-07 12:48 47.09176 29.14004 7280 ft 277 kts 135°
2026-05-07 12:48 47.07781 29.15905 6894 ft 272 kts 140°
2026-05-07 12:48 47.06291 29.17627 6523 ft 269 kts 144°
2026-05-07 12:49 47.04764 29.19131 6161 ft 267 kts 148°
2026-05-07 12:49 47.03137 29.20473 5816 ft 267 kts 153°
2026-05-07 12:49 47.01461 29.21602 5468 ft 266 kts 157°
2026-05-07 12:49 46.99728 29.22533 5133 ft 261 kts 162°
2026-05-07 12:50 46.98000 29.23237 4720 ft 258 kts 166°
2026-05-07 12:50 46.96278 29.23731 4379 ft 252 kts 171°
2026-05-07 12:50 46.94562 29.23545 4112 ft 244 kts 201°
2026-05-07 12:50 46.93310 29.21956 3804 ft 243 kts 238°
2026-05-07 12:51 46.92956 29.19567 3387 ft 245 kts 271°
2026-05-07 12:51 46.93121 29.17184 2989 ft 224 kts 269°
2026-05-07 12:51 46.93162 29.15033 2752 ft 200 kts 266°
2026-05-07 12:51 46.93153 29.13086 2528 ft 189 kts 264°
2026-05-07 12:52 46.93126 29.11186 2302 ft 182 kts 264°
2026-05-07 12:52 46.93098 29.09367 2092 ft 172 kts 264°
2026-05-07 12:52 46.93070 29.07650 1871 ft 166 kts 263°
2026-05-07 12:52 46.93042 29.06014 1644 ft 155 kts 263°
2026-05-07 12:53 46.93017 29.04499 1464 ft 147 kts 262°
2026-05-07 12:53 46.92992 29.03040 1271 ft 140 kts 262°
2026-05-07 12:53 46.92963 29.01645 1085 ft 133 kts 262°
2026-05-07 12:53 46.92929 29.00306 917 ft 131 kts 261°
2026-05-07 12:54 46.92895 28.98979 754 ft 130 kts 262°
2026-05-07 12:54 46.92870 28.97666 603 ft 130 kts 263°
2026-05-07 12:54 46.92844 28.96355 431 ft 128 kts 263°
2026-05-07 12:54 46.92820 28.95058 285 ft 124 kts 263°
2026-05-07 12:55 46.92799 28.93971 304 ft 70 kts 269°
2026-05-07 12:55 46.92787 28.93523 315 ft 25 kts 271°
2026-05-07 12:55 46.92866 28.93414 318 ft 15 kts
2026-05-07 12:55 46.92997 28.93412 318 ft 22 kts
2026-05-07 12:56 46.93129 28.93438 317 ft 17 kts 21°
2026-05-07 12:56 46.93134 28.93647 311 ft 31 kts 97°
2026-05-07 12:56 46.93107 28.93996 303 ft 37 kts 98°
2026-05-07 12:56 46.93073 28.94390 296 ft 41 kts 96°
2026-05-07 12:57 46.93039 28.94814 288 ft 43 kts 97°
2026-05-07 12:57 46.93054 28.95073 281 ft 20 kts 11°
2026-05-07 12:57 46.93191 28.95004 284 ft 22 kts 332°
2026-05-07 12:57 46.93294 28.94897 286 ft 16 kts 308°
2026-05-07 12:58 46.93332 28.94798 289 ft 5 kts 331°
2026-05-07 12:58 46.93353 28.94797 289 ft 0 kts